Time,TemperatureF,DewpointF,PressureIn,WindDirection,WindDirectionDegrees,WindSpeedMPH,WindSpeedGustMPH,Humidity,HourlyPrecipIn,Conditions,Clouds,dailyrainin,SoftwareType,DateUTC
2013-06-01 00:01:00,69.4,63.3,29.88,East,90,3.0,5.0,81,0.00,,,0.09,meteohub,2013-06-01 04:01:00,
2013-06-01 00:02:00,69.4,63.3,29.88,East,90,3.0,5.0,81,0.00,,,0.09,meteohub,2013-06-01 04:02:00,
2013-06-01 00:03:00,69.4,63.3,29.88,ENE,68,0.0,5.0,81,0.00,,,0.09,meteohub,2013-06-01 04:03:00,
2013-06-01 00:06:00,69.6,63.5,29.88,NNW,338,2.0,5.0,81,0.00,,,0.00,meteohub,2013-06-01 04:06:00,
2013-06-01 00:11:00,69.6,63.5,29.88,WNW,292,0.0,5.0,81,0.00,,,0.00,meteohub,2013-06-01 04:11:00,
2013-06-01 00:16:00,70.0,63.9,29.88,SSW,202,4.0,5.0,81,0.00,,,0.00,meteohub,2013-06-01 04:16:00,
2013-06-01 00:21:00,70.2,64.0,29.88,SSE,158,1.0,5.0,81,0.00,,,0.00,meteohub,2013-06-01 04:21:00,
2013-06-01 00:26:00,70.2,64.0,29.88,ESE,112,2.0,5.0,81,0.00,,,0.00,meteohub,2013-06-01 04:26:00,
2013-06-01 00:31:00,70.3,64.2,29.88,SSE,158,0.0,4.0,81,0.00,,,0.00,meteohub,2013-06-01 04:31:00,
2013-06-01 00:36:00,70.3,63.9,29.88,South,180,0.0,4.0,80,0.00,,,0.00,meteohub,2013-06-01 04:36:00,
2013-06-01 00:41:00,70.3,63.9,29.88,SW,225,3.0,4.0,80,0.00,,,0.00,meteohub,2013-06-01 04:41:00,
2013-06-01 00:46:00,70.5,63.3,29.88,South,180,1.0,6.0,78,0.00,,,0.00,meteohub,2013-06-01 04:46:00,
2013-06-01 00:52:00,70.3,63.1,29.88,SE,135,0.0,6.0,78,0.00,,,0.00,meteohub,2013-06-01 04:52:00,
2013-06-01 00:57:00,70.3,62.8,29.88,South,180,0.0,6.0,77,0.00,,,0.00,meteohub,2013-06-01 04:57:00,
2013-06-01 01:02:00,70.2,62.6,29.85,SSE,158,0.0,4.0,77,0.00,,,0.00,meteohub,2013-06-01 05:02:00,
2013-06-01 01:07:00,70.2,62.2,29.85,ENE,68,1.0,3.0,76,0.00,,,0.00,meteohub,2013-06-01 05:07:00,
2013-06-01 01:12:00,70.0,62.1,29.85,South,180,2.0,2.0,76,0.00,,,0.00,meteohub,2013-06-01 05:12:00,
2013-06-01 01:17:00,70.0,62.4,29.88,SW,225,1.0,3.0,77,0.00,,,0.00,meteohub,2013-06-01 05:17:00,
2013-06-01 01:22:00,69.8,61.9,29.88,SSE,158,4.0,6.0,76,0.00,,,0.00,meteohub,2013-06-01 05:22:00,
2013-06-01 01:27:00,69.8,61.2,29.88,SSW,202,2.0,6.0,74,0.00,,,0.00,meteohub,2013-06-01 05:27:00,
2013-06-01 01:32:00,69.8,60.4,29.85,SSE,158,2.0,8.0,72,0.00,,,0.00,meteohub,2013-06-01 05:32:00,
2013-06-01 01:37:00,69.8,59.9,29.85,WSW,248,0.0,8.0,71,0.00,,,0.00,meteohub,2013-06-01 05:37:00,
2013-06-01 01:42:00,69.6,59.4,29.82,SE,135,3.0,5.0,70,0.00,,,0.00,meteohub,2013-06-01 05:42:00,
2013-06-01 01:47:00,69.4,58.8,29.82,SSW,202,3.0,5.0,69,0.00,,,0.00,meteohub,2013-06-01 05:47:00,
2013-06-01 01:52:00,69.6,59.0,29.82,SE,135,0.0,4.0,69,0.00,,,0.00,meteohub,2013-06-01 05:52:00,
2013-06-01 01:57:00,69.4,58.5,29.82,SSW,202,3.0,4.0,68,0.00,,,0.00,meteohub,2013-06-01 05:57:00,
2013-06-01 02:03:00,69.4,58.1,29.82,WSW,248,4.0,4.0,67,0.00,,,0.00,meteohub,2013-06-01 06:03:00,
2013-06-01 02:08:00,69.6,57.4,29.82,WSW,248,6.0,6.0,65,0.00,,,0.00,meteohub,2013-06-01 06:08:00,
2013-06-01 02:13:00,69.6,57.4,29.85,WSW,248,7.0,9.0,65,0.00,,,0.00,meteohub,2013-06-01 06:13:00,
2013-06-01 02:18:00,69.6,55.6,29.85,SSW,202,4.0,9.0,61,0.00,,,0.00,meteohub,2013-06-01 06:18:00,
2013-06-01 02:23:00,69.4,55.0,29.85,ESE,112,0.0,9.0,60,0.00,,,0.00,meteohub,2013-06-01 06:23:00,
2013-06-01 02:28:00,69.3,54.3,29.82,ESE,112,1.0,8.0,59,0.00,,,0.00,meteohub,2013-06-01 06:28:00,
2013-06-01 02:33:00,69.3,54.3,29.82,West,270,5.0,6.0,59,0.00,,,0.00,meteohub,2013-06-01 06:33:00,
2013-06-01 02:38:00,69.1,54.1,29.82,WSW,248,2.0,2.0,59,0.00,,,0.00,meteohub,2013-06-01 06:38:00,
2013-06-01 02:43:00,69.1,53.2,29.85,WSW,248,4.0,6.0,57,0.00,,,0.00,meteohub,2013-06-01 06:43:00,
2013-06-01 02:48:00,69.1,53.8,29.85,SSW,202,2.0,7.0,58,0.00,,,0.00,meteohub,2013-06-01 06:48:00,
2013-06-01 02:53:00,69.1,53.8,29.85,SW,225,2.0,7.0,58,0.00,,,0.00,meteohub,2013-06-01 06:53:00,
2013-06-01 02:58:00,68.9,53.6,29.82,South,180,0.0,7.0,58,0.00,,,0.00,meteohub,2013-06-01 06:58:00,
2013-06-01 03:03:00,68.7,53.4,29.82,South,180,0.0,3.0,58,0.00,,,0.00,meteohub,2013-06-01 07:03:00,
2013-06-01 03:09:00,68.4,52.5,29.82,SE,135,0.0,3.0,57,0.00,,,0.00,meteohub,2013-06-01 07:09:00,
2013-06-01 03:14:00,68.2,52.9,29.82,SE,135,0.0,2.0,58,0.00,,,0.00,meteohub,2013-06-01 07:14:00,
2013-06-01 03:19:00,68.0,53.1,29.82,SSE,158,0.0,0.0,59,0.00,,,0.00,meteohub,2013-06-01 07:19:00,
2013-06-01 03:24:00,67.8,54.3,29.82,SSE,158,0.0,0.0,62,0.00,,,0.00,meteohub,2013-06-01 07:24:00,
2013-06-01 03:29:00,67.8,56.5,29.85,SSW,202,0.0,1.0,67,0.00,,,0.00,meteohub,2013-06-01 07:29:00,
2013-06-01 03:34:00,67.6,56.7,29.85,SE,135,0.0,3.0,68,0.00,,,0.00,meteohub,2013-06-01 07:34:00,
2013-06-01 03:39:00,67.6,56.7,29.85,ENE,68,0.0,3.0,68,0.00,,,0.00,meteohub,2013-06-01 07:39:00,
2013-06-01 03:44:00,67.5,57.0,29.85,ESE,112,3.0,3.0,69,0.00,,,0.00,meteohub,2013-06-01 07:44:00,
2013-06-01 03:49:00,67.3,55.9,29.85,WSW,248,2.0,4.0,67,0.00,,,0.00,meteohub,2013-06-01 07:49:00,
2013-06-01 03:54:00,67.3,53.8,29.85,WSW,248,2.0,4.0,62,0.00,,,0.00,meteohub,2013-06-01 07:54:00,
2013-06-01 03:59:00,67.1,51.8,29.85,SSE,158,0.0,4.0,58,0.00,,,0.00,meteohub,2013-06-01 07:59:00,
2013-06-01 04:04:00,67.1,51.8,29.85,SSE,158,0.0,6.0,58,0.00,,,0.00,meteohub,2013-06-01 08:04:00,
2013-06-01 04:09:00,67.1,51.4,29.85,South,180,0.0,6.0,57,0.00,,,0.00,meteohub,2013-06-01 08:09:00,
2013-06-01 04:14:00,66.9,51.3,29.82,SSE,158,3.0,3.0,57,0.00,,,0.00,meteohub,2013-06-01 08:14:00,
2013-06-01 04:20:00,66.9,50.7,29.82,SW,225,0.0,3.0,56,0.00,,,0.00,meteohub,2013-06-01 08:20:00,
2013-06-01 04:25:00,66.9,52.2,29.82,SSW,202,0.0,4.0,59,0.00,,,0.00,meteohub,2013-06-01 08:25:00,
2013-06-01 04:30:00,66.6,51.3,29.85,SSW,202,4.0,4.0,58,0.00,,,0.00,meteohub,2013-06-01 08:30:00,
2013-06-01 04:35:00,66.6,54.9,29.85,WSW,248,4.0,5.0,66,0.04,,,0.04,meteohub,2013-06-01 08:35:00,
2013-06-01 04:40:00,66.2,54.9,29.85,SSW,202,2.0,6.0,67,0.04,,,0.04,meteohub,2013-06-01 08:40:00,
2013-06-01 04:45:00,66.0,55.9,29.88,SSW,202,1.0,6.0,70,0.04,,,0.04,meteohub,2013-06-01 08:45:00,
2013-06-01 04:50:00,65.8,56.1,29.88,SSW,202,3.0,6.0,71,0.08,,,0.08,meteohub,2013-06-01 08:50:00,
2013-06-01 04:55:00,65.5,56.7,29.88,SSW,202,4.0,6.0,73,0.08,,,0.08,meteohub,2013-06-01 08:55:00,
2013-06-01 05:00:00,65.5,57.7,29.88,SSW,202,2.0,7.0,76,0.12,,,0.12,meteohub,2013-06-01 09:00:00,
2013-06-01 05:05:00,65.3,57.9,29.88,WNW,292,6.0,7.0,77,0.12,,,0.12,meteohub,2013-06-01 09:05:00,
2013-06-01 05:10:00,65.1,58.1,29.88,SSW,202,1.0,8.0,78,0.16,,,0.16,meteohub,2013-06-01 09:10:00,
2013-06-01 05:15:00,65.1,58.8,29.88,SSW,202,4.0,8.0,80,0.20,,,0.20,meteohub,2013-06-01 09:15:00,
2013-06-01 05:20:00,65.1,59.2,29.88,South,180,5.0,8.0,81,0.24,,,0.24,meteohub,2013-06-01 09:20:00,
2013-06-01 05:26:00,64.9,59.0,29.88,SSW,202,1.0,6.0,81,0.24,,,0.24,meteohub,2013-06-01 09:26:00,
2013-06-01 05:31:00,64.9,59.4,29.85,SSW,202,2.0,6.0,82,0.29,,,0.29,meteohub,2013-06-01 09:31:00,
2013-06-01 05:36:00,64.9,59.4,29.85,SSE,158,0.0,5.0,82,0.25,,,0.29,meteohub,2013-06-01 09:36:00,
2013-06-01 05:41:00,64.9,59.4,29.85,ESE,112,0.0,3.0,82,0.25,,,0.29,meteohub,2013-06-01 09:41:00,
2013-06-01 05:46:00,64.8,58.8,29.85,East,90,1.0,2.0,81,0.25,,,0.29,meteohub,2013-06-01 09:46:00,
2013-06-01 05:51:00,64.8,58.8,29.85,ESE,112,0.0,3.0,81,0.21,,,0.29,meteohub,2013-06-01 09:51:00,
2013-06-01 05:56:00,64.6,58.6,29.85,WSW,248,0.0,3.0,81,0.17,,,0.29,meteohub,2013-06-01 09:56:00,
2013-06-01 06:01:00,64.8,58.8,29.82,South,180,0.0,3.0,81,0.17,,,0.29,meteohub,2013-06-01 10:01:00,
2013-06-01 06:06:00,64.8,58.8,29.82,SE,135,0.0,0.0,81,0.13,,,0.29,meteohub,2013-06-01 10:06:00,
2013-06-01 06:11:00,64.6,58.6,29.82,SSE,158,0.0,0.0,81,0.09,,,0.29,meteohub,2013-06-01 10:11:00,
2013-06-01 06:17:00,64.6,58.6,29.82,SE,135,0.0,0.0,81,0.09,,,0.29,meteohub,2013-06-01 10:17:00,
2013-06-01 06:22:00,64.6,58.6,29.82,WSW,248,0.0,0.0,81,0.05,,,0.29,meteohub,2013-06-01 10:22:00,
2013-06-01 06:27:00,65.1,60.4,29.82,WSW,248,5.0,0.0,85,0.00,,,0.29,meteohub,2013-06-01 10:27:00,
2013-06-01 06:32:00,65.1,61.5,29.85,South,180,0.0,6.0,88,0.00,,,0.29,meteohub,2013-06-01 10:32:00,
2013-06-01 06:37:00,64.8,60.8,29.85,SSE,158,0.0,6.0,87,0.00,,,0.29,meteohub,2013-06-01 10:37:00,
2013-06-01 06:42:00,64.8,60.8,29.85,ENE,68,0.0,5.0,87,0.00,,,0.29,meteohub,2013-06-01 10:42:00,
2013-06-01 06:47:00,64.8,60.4,29.85,ESE,112,0.0,2.0,86,0.00,,,0.29,meteohub,2013-06-01 10:47:00,
2013-06-01 06:52:00,64.8,60.4,29.85,SSE,158,0.0,3.0,86,0.00,,,0.29,meteohub,2013-06-01 10:52:00,
2013-06-01 06:57:00,64.8,60.1,29.85,SSE,158,0.0,3.0,85,0.00,,,0.29,meteohub,2013-06-01 10:57:00,
2013-06-01 07:02:00,64.8,60.1,29.85,ESE,112,1.0,3.0,85,0.00,,,0.29,meteohub,2013-06-01 11:02:00,
2013-06-01 07:07:00,64.8,60.1,29.85,ESE,112,0.0,2.0,85,0.00,,,0.29,meteohub,2013-06-01 11:07:00,
2013-06-01 07:12:00,64.8,60.1,29.85,ESE,112,1.0,1.0,85,0.00,,,0.29,meteohub,2013-06-01 11:12:00,
2013-06-01 07:17:00,64.8,60.1,29.85,NNW,338,1.0,2.0,85,0.00,,,0.29,meteohub,2013-06-01 11:17:00,
2013-06-01 07:22:00,64.8,60.1,29.85,SSE,158,0.0,2.0,85,0.00,,,0.29,meteohub,2013-06-01 11:22:00,
2013-06-01 07:27:00,64.8,60.4,29.85,SE,135,0.0,4.0,86,0.00,,,0.29,meteohub,2013-06-01 11:27:00,
2013-06-01 07:32:00,64.8,60.4,29.85,ESE,112,2.0,4.0,86,0.00,,,0.29,meteohub,2013-06-01 11:32:00,
2013-06-01 07:37:00,64.8,60.4,29.85,South,180,0.0,4.0,86,0.00,,,0.29,meteohub,2013-06-01 11:37:00,
2013-06-01 07:42:00,64.8,60.4,29.85,ESE,112,1.0,2.0,86,0.00,,,0.29,meteohub,2013-06-01 11:42:00,
2013-06-01 07:47:00,64.9,60.6,29.85,South,180,0.0,2.0,86,0.00,,,0.29,meteohub,2013-06-01 11:47:00,
2013-06-01 07:52:00,64.9,60.6,29.85,South,180,0.0,2.0,86,0.00,,,0.29,meteohub,2013-06-01 11:52:00,
2013-06-01 07:57:00,64.9,60.6,29.85,ESE,112,0.0,2.0,86,0.00,,,0.29,meteohub,2013-06-01 11:57:00,
2013-06-01 08:02:00,65.1,60.8,29.82,ENE,68,0.0,2.0,86,0.00,,,0.29,meteohub,2013-06-01 12:02:00,
2013-06-01 08:07:00,65.3,61.0,29.82,East,90,1.0,2.0,86,0.00,,,0.29,meteohub,2013-06-01 12:07:00,
2013-06-01 08:12:00,65.3,61.0,29.82,East,90,1.0,1.0,86,0.00,,,0.29,meteohub,2013-06-01 12:12:00,
2013-06-01 08:17:00,65.5,61.2,29.82,ESE,112,0.0,4.0,86,0.00,,,0.29,meteohub,2013-06-01 12:17:00,
2013-06-01 08:22:00,65.7,61.3,29.82,ESE,112,0.0,4.0,86,0.00,,,0.29,meteohub,2013-06-01 12:22:00,
2013-06-01 08:27:00,65.8,61.9,29.82,SE,135,3.0,3.0,87,0.00,,,0.29,meteohub,2013-06-01 12:27:00,
2013-06-01 08:32:00,65.8,61.5,29.82,SSE,158,0.0,4.0,86,0.00,,,0.29,meteohub,2013-06-01 12:32:00,
2013-06-01 08:37:00,65.8,61.5,29.82,SSE,158,1.0,4.0,86,0.00,,,0.29,meteohub,2013-06-01 12:37:00,
2013-06-01 08:42:00,66.0,61.3,29.82,East,90,2.0,4.0,85,0.00,,,0.29,meteohub,2013-06-01 12:42:00,
2013-06-01 08:47:00,66.2,61.2,29.79,ESE,112,0.0,3.0,84,0.00,,,0.29,meteohub,2013-06-01 12:47:00,
2013-06-01 08:52:00,66.6,61.9,29.79,ESE,112,2.0,3.0,85,0.00,,,0.29,meteohub,2013-06-01 12:52:00,
2013-06-01 08:57:00,66.7,61.3,29.79,SSW,202,1.0,4.0,83,0.00,,,0.29,meteohub,2013-06-01 12:57:00,
2013-06-01 09:02:00,66.9,61.5,29.82,SE,135,2.0,4.0,83,0.00,,,0.29,meteohub,2013-06-01 13:02:00,
2013-06-01 09:07:00,67.5,62.1,29.82,SE,135,2.0,4.0,83,0.00,,,0.29,meteohub,2013-06-01 13:07:00,
2013-06-01 09:12:00,67.6,61.9,29.82,SE,135,1.0,4.0,82,0.00,,,0.29,meteohub,2013-06-01 13:12:00,
2013-06-01 09:17:00,68.0,61.9,29.79,ESE,112,0.0,3.0,81,0.00,,,0.29,meteohub,2013-06-01 13:17:00,
2013-06-01 09:22:00,68.5,61.7,29.79,SE,135,1.0,3.0,79,0.00,,,0.29,meteohub,2013-06-01 13:22:00,
2013-06-01 09:27:00,68.9,61.7,29.79,WNW,292,2.0,4.0,78,0.00,,,0.29,meteohub,2013-06-01 13:27:00,
2013-06-01 09:32:00,68.5,55.9,29.79,SW,225,3.0,4.0,64,0.00,,,0.29,meteohub,2013-06-01 13:32:00,
2013-06-01 09:37:00,68.7,53.4,29.79,South,180,3.0,7.0,58,0.00,,,0.29,meteohub,2013-06-01 13:37:00,
2013-06-01 09:42:00,68.9,53.1,29.79,South,180,0.0,8.0,57,0.00,,,0.29,meteohub,2013-06-01 13:42:00,
2013-06-01 09:47:00,68.9,51.6,29.79,ESE,112,4.0,8.0,54,0.00,,,0.29,meteohub,2013-06-01 13:47:00,
2013-06-01 09:52:00,68.9,50.5,29.79,SW,225,5.0,6.0,52,0.00,,,0.29,meteohub,2013-06-01 13:52:00,
2013-06-01 09:57:00,68.9,50.5,29.79,SSW,202,4.0,6.0,52,0.00,,,0.29,meteohub,2013-06-01 13:57:00,
2013-06-01 10:02:00,69.1,51.8,29.82,SSW,202,4.0,6.0,54,0.00,,,0.29,meteohub,2013-06-01 14:02:00,
2013-06-01 10:07:00,69.1,51.3,29.82,SSW,202,1.0,6.0,53,0.00,,,0.29,meteohub,2013-06-01 14:07:00,
2013-06-01 10:12:00,69.1,50.7,29.82,SSW,202,2.0,6.0,52,0.00,,,0.29,meteohub,2013-06-01 14:12:00,
2013-06-01 10:17:00,69.3,52.0,29.79,South,180,1.0,6.0,54,0.00,,,0.29,meteohub,2013-06-01 14:17:00,
2013-06-01 10:22:00,69.6,52.3,29.79,SSE,158,5.0,5.0,54,0.00,,,0.29,meteohub,2013-06-01 14:22:00,
2013-06-01 10:27:00,69.6,49.6,29.79,WSW,248,5.0,5.0,49,0.00,,,0.29,meteohub,2013-06-01 14:27:00,
2013-06-01 10:32:00,70.0,49.5,29.79,SW,225,2.0,6.0,48,0.00,,,0.29,meteohub,2013-06-01 14:32:00,
2013-06-01 10:37:00,70.5,48.2,29.79,SSE,158,3.0,6.0,45,0.00,,,0.29,meteohub,2013-06-01 14:37:00,
2013-06-01 10:42:00,70.5,46.9,29.79,SW,225,4.0,6.0,43,0.00,,,0.29,meteohub,2013-06-01 14:42:00,
2013-06-01 10:47:00,70.5,46.9,29.79,SW,225,3.0,6.0,43,0.00,,,0.29,meteohub,2013-06-01 14:47:00,
2013-06-01 10:52:00,70.7,47.7,29.79,South,180,4.0,5.0,44,0.00,,,0.29,meteohub,2013-06-01 14:52:00,
2013-06-01 10:57:00,71.1,47.5,29.79,SW,225,4.0,6.0,43,0.00,,,0.29,meteohub,2013-06-01 14:57:00,
2013-06-01 11:02:00,71.2,47.7,29.79,SSW,202,8.0,8.0,43,0.00,,,0.29,meteohub,2013-06-01 15:02:00,
2013-06-01 11:07:00,71.1,47.5,29.79,SW,225,4.0,8.0,43,0.00,,,0.29,meteohub,2013-06-01 15:07:00,
2013-06-01 11:12:00,71.1,47.5,29.79,WSW,248,3.0,8.0,43,0.00,,,0.29,meteohub,2013-06-01 15:12:00,
2013-06-01 11:17:00,70.9,45.3,29.82,SW,225,6.0,8.0,40,0.00,,,0.29,meteohub,2013-06-01 15:17:00,
2013-06-01 11:22:00,70.9,46.6,29.82,WSW,248,4.0,11.0,42,0.00,,,0.29,meteohub,2013-06-01 15:22:00,
2013-06-01 11:27:00,71.2,46.4,29.82,SSW,202,7.0,11.0,41,0.00,,,0.29,meteohub,2013-06-01 15:27:00,
2013-06-01 11:32:00,71.4,45.1,29.82,SSW,202,5.0,11.0,39,0.00,,,0.29,meteohub,2013-06-01 15:32:00,
2013-06-01 11:37:00,71.6,45.3,29.82,WSW,248,6.0,10.0,39,0.00,,,0.29,meteohub,2013-06-01 15:37:00,
2013-06-01 11:42:00,71.8,44.1,29.82,SW,225,6.0,9.0,37,0.00,,,0.29,meteohub,2013-06-01 15:42:00,
2013-06-01 11:47:00,72.1,44.4,29.82,SW,225,8.0,10.0,37,0.00,,,0.29,meteohub,2013-06-01 15:47:00,
2013-06-01 11:52:00,72.3,43.2,29.82,SW,225,5.0,10.0,35,0.00,,,0.29,meteohub,2013-06-01 15:52:00,
2013-06-01 11:57:00,72.9,43.7,29.82,WSW,248,6.0,10.0,35,0.00,,,0.29,meteohub,2013-06-01 15:57:00,
2013-06-01 12:02:00,73.0,41.5,29.82,SW,225,8.0,10.0,32,0.00,,,0.29,meteohub,2013-06-01 16:02:00,
2013-06-01 12:07:00,73.2,41.5,29.82,WSW,248,11.0,11.0,32,0.00,,,0.29,meteohub,2013-06-01 16:07:00,
2013-06-01 12:12:00,73.4,41.0,29.82,WSW,248,13.0,13.0,31,0.00,,,0.29,meteohub,2013-06-01 16:12:00,
2013-06-01 12:17:00,73.8,40.5,29.82,WSW,248,13.0,13.0,30,0.00,,,0.29,meteohub,2013-06-01 16:17:00,
2013-06-01 12:22:00,74.1,39.9,29.82,WSW,248,8.0,14.0,29,0.00,,,0.29,meteohub,2013-06-01 16:22:00,
2013-06-01 12:27:00,74.5,41.9,29.82,WSW,248,3.0,14.0,31,0.00,,,0.29,meteohub,2013-06-01 16:27:00,
2013-06-01 12:32:00,74.7,38.5,29.82,WSW,248,6.0,13.0,27,0.00,,,0.29,meteohub,2013-06-01 16:32:00,
2013-06-01 12:37:00,74.7,38.5,29.82,West,270,4.0,10.0,27,0.00,,,0.29,meteohub,2013-06-01 16:37:00,
2013-06-01 12:42:00,74.7,37.6,29.82,SSW,202,7.0,10.0,26,0.00,,,0.29,meteohub,2013-06-01 16:42:00,
2013-06-01 12:47:00,74.7,37.6,29.82,WSW,248,6.0,10.0,26,0.00,,,0.29,meteohub,2013-06-01 16:47:00,
2013-06-01 12:52:00,75.0,39.7,29.82,WSW,248,3.0,10.0,28,0.00,,,0.29,meteohub,2013-06-01 16:52:00,
2013-06-01 12:57:00,75.2,39.0,29.82,SW,225,4.0,7.0,27,0.00,,,0.29,meteohub,2013-06-01 16:57:00,
2013-06-01 13:02:00,75.4,40.1,29.82,West,270,3.0,8.0,28,0.00,,,0.29,meteohub,2013-06-01 17:02:00,
2013-06-01 13:07:00,75.2,37.0,29.82,WSW,248,4.0,8.0,25,0.00,,,0.29,meteohub,2013-06-01 17:07:00,
2013-06-01 13:12:00,75.9,37.6,29.82,WSW,248,1.0,10.0,25,0.00,,,0.29,meteohub,2013-06-01 17:12:00,
2013-06-01 13:17:00,76.6,37.2,29.82,South,180,6.0,10.0,24,0.00,,,0.29,meteohub,2013-06-01 17:17:00,
2013-06-01 13:22:00,76.3,36.9,29.82,WSW,248,6.0,10.0,24,0.00,,,0.29,meteohub,2013-06-01 17:22:00,
2013-06-01 13:27:00,76.3,36.9,29.82,SSW,202,0.0,9.0,24,0.00,,,0.29,meteohub,2013-06-01 17:27:00,
2013-06-01 13:32:00,77.2,35.4,29.79,SW,225,4.0,9.0,22,0.00,,,0.29,meteohub,2013-06-01 17:32:00,
2013-06-01 13:37:00,77.2,35.4,29.79,WSW,248,10.0,10.0,22,0.00,,,0.29,meteohub,2013-06-01 17:37:00,
2013-06-01 13:42:00,77.2,36.5,29.79,SW,225,1.0,13.0,23,0.00,,,0.29,meteohub,2013-06-01 17:42:00,
2013-06-01 13:47:00,76.8,35.1,29.79,SSW,202,4.0,13.0,22,0.00,,,0.29,meteohub,2013-06-01 17:47:00,
2013-06-01 13:52:00,77.0,34.2,29.79,WSW,248,6.0,13.0,21,0.00,,,0.29,meteohub,2013-06-01 17:52:00,
2013-06-01 13:57:00,77.0,34.2,29.79,WSW,248,6.0,12.0,21,0.00,,,0.29,meteohub,2013-06-01 17:57:00,
2013-06-01 14:02:00,76.6,35.1,29.82,WSW,248,6.0,12.0,22,0.00,,,0.29,meteohub,2013-06-01 18:02:00,
2013-06-01 14:07:00,76.5,34.9,29.82,WSW,248,7.0,8.0,22,0.00,,,0.29,meteohub,2013-06-01 18:07:00,
2013-06-01 14:12:00,76.5,34.9,29.82,SW,225,5.0,14.0,22,0.00,,,0.29,meteohub,2013-06-01 18:12:00,
2013-06-01 14:17:00,76.6,35.1,29.79,WSW,248,2.0,16.0,22,0.00,,,0.29,meteohub,2013-06-01 18:17:00,
2013-06-01 14:22:00,76.8,35.1,29.79,SSW,202,3.0,16.0,22,0.00,,,0.29,meteohub,2013-06-01 18:22:00,
2013-06-01 14:27:00,77.2,35.4,29.79,SSW,202,3.0,16.0,22,0.00,,,0.29,meteohub,2013-06-01 18:27:00,
2013-06-01 14:32:00,77.4,34.3,29.79,WSW,248,3.0,6.0,21,0.00,,,0.29,meteohub,2013-06-01 18:32:00,
2013-06-01 14:37:00,77.2,34.3,29.79,SSE,158,2.0,6.0,21,0.00,,,0.29,meteohub,2013-06-01 18:37:00,
2013-06-01 14:42:00,77.5,34.5,29.79,WSW,248,3.0,12.0,21,0.00,,,0.29,meteohub,2013-06-01 18:42:00,
2013-06-01 14:47:00,77.4,34.3,29.79,SW,225,2.0,12.0,21,0.00,,,0.29,meteohub,2013-06-01 18:47:00,
2013-06-01 14:52:00,77.4,34.3,29.79,SSW,202,2.0,8.0,21,0.00,,,0.29,meteohub,2013-06-01 18:52:00,
2013-06-01 14:57:00,77.5,34.5,29.79,SSE,158,2.0,6.0,21,0.00,,,0.29,meteohub,2013-06-01 18:57:00,
2013-06-01 15:02:00,77.5,34.5,29.79,SSW,202,2.0,8.0,21,0.00,,,0.29,meteohub,2013-06-01 19:02:00,
2013-06-01 15:07:00,77.0,34.2,29.79,SSW,202,3.0,8.0,21,0.00,,,0.29,meteohub,2013-06-01 19:07:00,
2013-06-01 15:12:00,76.8,35.1,29.79,WSW,248,6.0,6.0,22,0.00,,,0.29,meteohub,2013-06-01 19:12:00,
2013-06-01 15:18:00,77.5,34.5,29.79,SW,225,4.0,9.0,21,0.00,,,0.29,meteohub,2013-06-01 19:18:00,
2013-06-01 15:23:00,77.4,34.3,29.79,SW,225,6.0,9.0,21,0.00,,,0.29,meteohub,2013-06-01 19:23:00,
2013-06-01 15:29:00,78.3,36.3,29.79,ESE,112,0.0,9.0,22,0.00,,,0.29,meteohub,2013-06-01 19:29:00,
2013-06-01 15:34:00,79.0,35.8,29.76,SW,225,5.0,7.0,21,0.00,,,0.29,meteohub,2013-06-01 19:34:00,
2013-06-01 15:39:00,78.4,35.2,29.76,SSE,158,3.0,7.0,21,0.00,,,0.29,meteohub,2013-06-01 19:39:00,
2013-06-01 15:44:00,77.9,34.9,29.79,SSW,202,2.0,6.0,21,0.00,,,0.29,meteohub,2013-06-01 19:44:00,
2013-06-01 15:49:00,77.4,34.3,29.79,SE,135,3.0,6.0,21,0.00,,,0.29,meteohub,2013-06-01 19:49:00,
2013-06-01 15:54:00,77.2,34.3,29.79,WNW,292,5.0,6.0,21,0.00,,,0.29,meteohub,2013-06-01 19:54:00,
2013-06-01 15:59:00,77.2,34.3,29.79,SW,225,2.0,6.0,21,0.00,,,0.29,meteohub,2013-06-01 19:59:00,
2013-06-01 16:04:00,77.2,34.3,29.79,SSW,202,3.0,6.0,21,0.00,,,0.29,meteohub,2013-06-01 20:04:00,
2013-06-01 16:09:00,76.8,35.1,29.79,ENE,68,0.0,6.0,22,0.00,,,0.29,meteohub,2013-06-01 20:09:00,
2013-06-01 16:14:00,77.0,34.2,29.79,SSW,202,2.0,8.0,21,0.00,,,0.29,meteohub,2013-06-01 20:14:00,
2013-06-01 16:19:00,76.8,35.1,29.79,SSW,202,0.0,8.0,22,0.00,,,0.29,meteohub,2013-06-01 20:19:00,
2013-06-01 16:24:00,76.3,34.7,29.79,WSW,248,3.0,8.0,22,0.00,,,0.29,meteohub,2013-06-01 20:24:00,
2013-06-01 16:29:00,76.1,35.6,29.79,SSW,202,4.0,7.0,23,0.00,,,0.29,meteohub,2013-06-01 20:29:00,
2013-06-01 16:35:00,76.3,36.9,29.79,WSW,248,3.0,7.0,24,0.00,,,0.29,meteohub,2013-06-01 20:35:00,
2013-06-01 16:40:00,76.5,36.0,29.79,SSW,202,2.0,12.0,23,0.00,,,0.29,meteohub,2013-06-01 20:40:00,
2013-06-01 16:45:00,76.5,34.9,29.79,SW,225,6.0,12.0,22,0.00,,,0.29,meteohub,2013-06-01 20:45:00,
2013-06-01 16:50:00,76.3,33.4,29.79,SW,225,8.0,14.0,21,0.00,,,0.29,meteohub,2013-06-01 20:50:00,
2013-06-01 16:55:00,76.1,33.4,29.79,SSW,202,5.0,14.0,21,0.00,,,0.29,meteohub,2013-06-01 20:55:00,
2013-06-01 17:00:00,75.9,34.3,29.79,WSW,248,9.0,14.0,22,0.00,,,0.29,meteohub,2013-06-01 21:00:00,
2013-06-01 17:05:00,75.7,34.2,29.79,SSW,202,8.0,9.0,22,0.00,,,0.29,meteohub,2013-06-01 21:05:00,
2013-06-01 17:10:00,75.7,34.2,29.79,WSW,248,5.0,9.0,22,0.00,,,0.29,meteohub,2013-06-01 21:10:00,
2013-06-01 17:15:00,75.7,34.2,29.76,SSE,158,3.0,9.0,22,0.00,,,0.29,meteohub,2013-06-01 21:15:00,
2013-06-01 17:20:00,75.9,34.3,29.76,SSW,202,4.0,9.0,22,0.00,,,0.29,meteohub,2013-06-01 21:20:00,
2013-06-01 17:26:00,75.7,34.2,29.76,SW,225,6.0,7.0,22,0.00,,,0.29,meteohub,2013-06-01 21:26:00,
2013-06-01 17:31:00,75.6,34.2,29.76,SW,225,3.0,9.0,22,0.00,,,0.29,meteohub,2013-06-01 21:31:00,
2013-06-01 17:36:00,75.2,33.8,29.76,SSW,202,4.0,9.0,22,0.00,,,0.29,meteohub,2013-06-01 21:36:00,
2013-06-01 17:41:00,75.0,33.6,29.76,SSW,202,6.0,9.0,22,0.00,,,0.29,meteohub,2013-06-01 21:41:00,
2013-06-01 17:46:00,74.8,34.5,29.79,SW,225,6.0,8.0,23,0.00,,,0.29,meteohub,2013-06-01 21:46:00,
2013-06-01 17:51:00,74.5,34.3,29.79,SW,225,4.0,10.0,23,0.00,,,0.29,meteohub,2013-06-01 21:51:00,
2013-06-01 17:56:00,74.3,34.2,29.79,SW,225,4.0,10.0,23,0.00,,,0.29,meteohub,2013-06-01 21:56:00,
2013-06-01 18:01:00,74.1,34.0,29.79,SW,225,2.0,10.0,23,0.00,,,0.29,meteohub,2013-06-01 22:01:00,
2013-06-01 18:06:00,74.1,35.1,29.79,South,180,0.0,7.0,24,0.00,,,0.29,meteohub,2013-06-01 22:06:00,
2013-06-01 18:11:00,73.8,34.7,29.79,SSW,202,2.0,6.0,24,0.00,,,0.29,meteohub,2013-06-01 22:11:00,
2013-06-01 18:17:00,73.6,34.5,29.76,SW,225,3.0,5.0,24,0.00,,,0.29,meteohub,2013-06-01 22:17:00,
2013-06-01 18:22:00,73.4,35.4,29.76,SSW,202,6.0,6.0,25,0.00,,,0.29,meteohub,2013-06-01 22:22:00,
2013-06-01 18:27:00,73.2,36.3,29.76,SSW,202,2.0,6.0,26,0.00,,,0.29,meteohub,2013-06-01 22:27:00,
2013-06-01 18:32:00,73.0,37.0,29.79,SSW,202,4.0,6.0,27,0.00,,,0.29,meteohub,2013-06-01 22:32:00,
2013-06-01 18:37:00,72.9,38.8,29.79,SSW,202,4.0,6.0,29,0.00,,,0.29,meteohub,2013-06-01 22:37:00,
2013-06-01 18:42:00,72.7,40.3,29.79,SSW,202,0.0,6.0,31,0.00,,,0.29,meteohub,2013-06-01 22:42:00,
2013-06-01 18:47:00,72.5,41.0,29.79,SSW,202,0.0,6.0,32,0.00,,,0.29,meteohub,2013-06-01 22:47:00,
2013-06-01 18:52:00,72.3,40.8,29.79,SW,225,3.0,4.0,32,0.00,,,0.29,meteohub,2013-06-01 22:52:00,
2013-06-01 18:57:00,72.1,40.6,29.79,WSW,248,0.0,4.0,32,0.00,,,0.29,meteohub,2013-06-01 22:57:00,
2013-06-01 19:02:00,72.3,41.7,29.79,WSW,248,4.0,4.0,33,0.00,,,0.29,meteohub,2013-06-01 23:02:00,
2013-06-01 19:07:00,72.1,41.5,29.79,WSW,248,3.0,4.0,33,0.00,,,0.29,meteohub,2013-06-01 23:07:00,
2013-06-01 19:12:00,72.0,41.4,29.79,SSW,202,0.0,5.0,33,0.00,,,0.29,meteohub,2013-06-01 23:12:00,
2013-06-01 19:17:00,71.8,41.2,29.76,SSW,202,2.0,6.0,33,0.00,,,0.29,meteohub,2013-06-01 23:17:00,
2013-06-01 19:22:00,71.8,41.2,29.76,South,180,2.0,6.0,33,0.00,,,0.29,meteohub,2013-06-01 23:22:00,
2013-06-01 19:27:00,71.8,42.6,29.76,SSW,202,1.0,4.0,35,0.00,,,0.29,meteohub,2013-06-01 23:27:00,
2013-06-01 19:32:00,71.8,42.6,29.79,SSE,158,0.0,4.0,35,0.00,,,0.29,meteohub,2013-06-01 23:32:00,
2013-06-01 19:37:00,71.8,41.9,29.79,SE,135,0.0,4.0,34,0.00,,,0.29,meteohub,2013-06-01 23:37:00,
2013-06-01 19:42:00,71.6,41.7,29.79,SSW,202,0.0,3.0,34,0.00,,,0.29,meteohub,2013-06-01 23:42:00,
2013-06-01 19:47:00,71.4,41.5,29.79,SSW,202,2.0,3.0,34,0.00,,,0.29,meteohub,2013-06-01 23:47:00,
2013-06-01 19:52:00,71.4,42.4,29.79,SSW,202,0.0,3.0,35,0.00,,,0.29,meteohub,2013-06-01 23:52:00,
2013-06-01 19:57:00,71.4,41.5,29.79,SSW,202,0.0,3.0,34,0.00,,,0.29,meteohub,2013-06-01 23:57:00,
2013-06-01 20:02:00,71.4,42.4,29.79,SSW,202,0.0,3.0,35,0.00,,,0.29,meteohub,2013-06-02 00:02:00,
2013-06-01 20:07:00,71.4,42.4,29.79,SSW,202,0.0,0.0,35,0.00,,,0.29,meteohub,2013-06-02 00:07:00,
2013-06-01 20:12:00,71.2,42.3,29.79,SSW,202,0.0,0.0,35,0.00,,,0.29,meteohub,2013-06-02 00:12:00,
2013-06-01 20:17:00,71.2,42.3,29.79,SSE,158,0.0,0.0,35,0.00,,,0.29,meteohub,2013-06-02 00:17:00,
2013-06-01 20:22:00,71.1,42.1,29.79,SSE,158,0.0,0.0,35,0.00,,,0.29,meteohub,2013-06-02 00:22:00,
2013-06-01 20:27:00,71.1,42.8,29.79,SE,135,0.0,0.0,36,0.00,,,0.29,meteohub,2013-06-02 00:27:00,
2013-06-01 20:32:00,70.7,42.4,29.79,SE,135,0.0,0.0,36,0.00,,,0.29,meteohub,2013-06-02 00:32:00,
2013-06-01 20:37:00,70.5,42.3,29.79,SE,135,0.0,0.0,36,0.00,,,0.29,meteohub,2013-06-02 00:37:00,
2013-06-01 20:42:00,70.5,43.0,29.79,ESE,112,0.0,0.0,37,0.00,,,0.29,meteohub,2013-06-02 00:42:00,
2013-06-01 20:47:00,70.3,42.8,29.79,ESE,112,0.0,0.0,37,0.00,,,0.29,meteohub,2013-06-02 00:47:00,
2013-06-01 20:52:00,70.3,44.2,29.79,ESE,112,0.0,0.0,39,0.00,,,0.29,meteohub,2013-06-02 00:52:00,
2013-06-01 20:57:00,70.0,44.6,29.79,ESE,112,0.0,0.0,40,0.00,,,0.29,meteohub,2013-06-02 00:57:00,
2013-06-01 21:02:00,70.0,44.6,29.79,SSE,158,0.0,0.0,40,0.00,,,0.29,meteohub,2013-06-02 01:02:00,
2013-06-01 21:07:00,70.0,44.6,29.79,SSE,158,0.0,0.0,40,0.00,,,0.29,meteohub,2013-06-02 01:07:00,
2013-06-01 21:12:00,69.6,45.0,29.79,SSE,158,0.0,0.0,41,0.00,,,0.29,meteohub,2013-06-02 01:12:00,
2013-06-01 21:17:00,69.4,44.8,29.79,SSE,158,0.0,0.0,41,0.00,,,0.29,meteohub,2013-06-02 01:17:00,
2013-06-01 21:22:00,69.1,44.4,29.79,SSE,158,0.0,0.0,41,0.00,,,0.29,meteohub,2013-06-02 01:22:00,
2013-06-01 21:27:00,68.9,44.2,29.79,SSE,158,0.0,0.0,41,0.00,,,0.29,meteohub,2013-06-02 01:27:00,
2013-06-01 21:32:00,68.9,45.0,29.79,SSE,158,0.0,0.0,42,0.00,,,0.29,meteohub,2013-06-02 01:32:00,
2013-06-01 21:37:00,68.7,44.8,29.79,SSE,158,0.0,0.0,42,0.00,,,0.29,meteohub,2013-06-02 01:37:00,
2013-06-01 21:42:00,68.5,44.6,29.79,SSE,158,0.0,0.0,42,0.00,,,0.29,meteohub,2013-06-02 01:42:00,
2013-06-01 21:47:00,68.4,45.0,29.79,SSE,158,0.0,0.0,43,0.00,,,0.29,meteohub,2013-06-02 01:47:00,
2013-06-01 21:52:00,68.4,45.0,29.79,SSE,158,0.0,0.0,43,0.00,,,0.29,meteohub,2013-06-02 01:52:00,
2013-06-01 21:57:00,68.2,44.8,29.79,ESE,112,2.0,0.0,43,0.00,,,0.29,meteohub,2013-06-02 01:57:00,
2013-06-01 22:02:00,68.2,46.0,29.76,ESE,112,0.0,2.0,45,0.00,,,0.29,meteohub,2013-06-02 02:02:00,
2013-06-01 22:07:00,68.2,46.0,29.76,ESE,112,0.0,2.0,45,0.00,,,0.29,meteohub,2013-06-02 02:07:00,
2013-06-01 22:12:00,68.2,45.5,29.76,ESE,112,0.0,2.0,44,0.00,,,0.29,meteohub,2013-06-02 02:12:00,
2013-06-01 22:17:00,68.0,45.3,29.76,ESE,112,0.0,0.0,44,0.00,,,0.29,meteohub,2013-06-02 02:17:00,
2013-06-01 22:22:00,68.0,45.3,29.76,ESE,112,0.0,0.0,44,0.00,,,0.29,meteohub,2013-06-02 02:22:00,
2013-06-01 22:27:00,68.0,45.3,29.76,ESE,112,0.0,0.0,44,0.00,,,0.29,meteohub,2013-06-02 02:27:00,
2013-06-01 22:32:00,67.8,45.7,29.76,ESE,112,0.0,0.0,45,0.00,,,0.29,meteohub,2013-06-02 02:32:00,
2013-06-01 22:37:00,67.8,45.7,29.76,ESE,112,0.0,0.0,45,0.00,,,0.29,meteohub,2013-06-02 02:37:00,
2013-06-01 22:44:00,67.8,45.7,29.73,ESE,112,0.0,0.0,45,0.00,,,0.29,meteohub,2013-06-02 02:44:00,
2013-06-01 22:49:00,67.6,45.5,29.73,ESE,112,0.0,0.0,45,0.00,,,0.29,meteohub,2013-06-02 02:49:00,
2013-06-01 22:54:00,67.6,45.5,29.73,ESE,112,0.0,0.0,45,0.00,,,0.29,meteohub,2013-06-02 02:54:00,
2013-06-01 22:59:00,67.5,45.3,29.73,ESE,112,0.0,0.0,45,0.00,,,0.29,meteohub,2013-06-02 02:59:00,
2013-06-01 23:04:00,67.5,46.0,29.73,ESE,112,0.0,0.0,46,0.00,,,0.29,meteohub,2013-06-02 03:04:00,
2013-06-01 23:09:00,67.5,46.6,29.73,ESE,112,0.0,0.0,47,0.00,,,0.29,meteohub,2013-06-02 03:09:00,
2013-06-01 23:14:00,67.3,46.4,29.70,ESE,112,0.0,0.0,47,0.00,,,0.29,meteohub,2013-06-02 03:14:00,
2013-06-01 23:19:00,67.1,45.7,29.70,ESE,112,0.0,0.0,46,0.00,,,0.29,meteohub,2013-06-02 03:19:00,
2013-06-01 23:24:00,67.1,46.2,29.70,ESE,112,0.0,0.0,47,0.00,,,0.29,meteohub,2013-06-02 03:24:00,
2013-06-01 23:29:00,66.7,46.4,29.73,ESE,112,0.0,0.0,48,0.00,,,0.29,meteohub,2013-06-02 03:29:00,
2013-06-01 23:35:00,66.6,46.8,29.73,ESE,112,0.0,0.0,49,0.00,,,0.29,meteohub,2013-06-02 03:35:00,
2013-06-01 23:40:00,66.4,46.6,29.73,ESE,112,0.0,0.0,49,0.00,,,0.29,meteohub,2013-06-02 03:40:00,
2013-06-01 23:45:00,66.2,46.6,29.73,ESE,112,0.0,0.0,49,0.00,,,0.29,meteohub,2013-06-02 03:45:00,
2013-06-01 23:50:00,66.0,46.9,29.73,ESE,112,0.0,0.0,50,0.00,,,0.29,meteohub,2013-06-02 03:50:00,
2013-06-01 23:55:00,66.0,46.9,29.73,ESE,112,0.0,0.0,50,0.00,,,0.29,meteohub,2013-06-02 03:55:00,